User: anonymous   Login
Location: Ergnies
(50.0854°N, 2.0375°E)
Time: 06:56:10
(UTC+00:00)
Language:

Gbstr 26 Del rocket - Orbit

View from above orbital plane
View from above orbital plane
View from above satellite
View from above satellite

Ground track
Ground track

The orbit is defined by the following mean orbital elements,

1 25876U          26075.80413597 +.00000000 +00000-0 +18619-3 0 00006
2 25876  51.7614 272.8619 0502548   9.4183 351.5757 14.11858703    09
Epoch (UTC): 16 March 2026 19:17:57
Eccentricity: 0.0502548
inclination: 51.7614°
perigee height: 490 km
apogee height: 1216 km
right ascension of ascending node: 272.8619°
argument of perigee: 9.4183°
revolutions per day: 14.11858703
mean anomaly at epoch: 351.5757°

The dashed part of the orbit path shows where the satellite is in the earth's shadow,  

DLR